Flag for Belgium Weather past 2 weeks in Charleroi, Belgium

Now
68 °F

Sunny.


Feels Like: 68 °F
Forecast: 56 / 76 °F
Wind: 7 mph from Northeast

Location: Charleroi / Gosselies

Current Time: Sep 16, 2014 at 8:10:21 PM

Latest Report: Sep 16, 2014 at 7:20 PM


Visibility: 10 mi

Pressure: 29.95 "Hg

Humidity: 64%

Dew point: 55 °F

Location of CharleroiLocation

Historic Weather in Charleroi — Graph

°F

Charleroi temperature yesterday

Maximum temperature yesterday: 70 °F (at 1:20 PM)
Minimum temperature yesterday: 54 °F (at 5:20 AM)
Average temperature yesterday: 62 °F

Past Weeks' High & Low Weather Summary

 TemperatureHumidityPressure
High73 °F (Sep 5, 1:50 PM)100% (Sep 3, 7:20 AM)30.27 "Hg (Sep 3, 7:20 AM)
Low48 °F (Sep 12, 4:20 AM)47% (Sep 16, 5:50 PM)29.92 "Hg (Sep 6, 5:20 AM)
Average60 °F79%30.09 "Hg
* Reported Sep 1 6:20 PM — Sep 16 6:50 PM, Charleroi, Weather by CustomWeather, © 2014

Note: Actual official high and low records may vary slightly from our data, if they occured in-between our weather recording intervals... More about our weather records

Advertising

Charleroi weather history for previous 24 hours

 ConditionsComfort  
Time TempWeatherWind HumidityBarometerVisibility
6:50 PM
Sep 16
70 °FPassing clouds.8 mph57%29.95 "HgN/A
6:20 PM72 °FPassing clouds.7 mph53%29.95 "HgN/A
5:50 PM73 °FPassing clouds.6 mph47%29.95 "HgN/A
5:20 PM73 °FPassing clouds.6 mph50%29.95 "HgN/A
4:50 PM72 °FPassing clouds.3 mph53%29.95 "HgN/A
4:20 PM72 °FPassing clouds.5 mph50%29.95 "HgN/A
3:50 PM73 °FPassing clouds.6 mph50%29.95 "HgN/A
3:20 PM72 °FPassing clouds.6 mph53%29.95 "HgN/A
2:50 PM73 °FPassing clouds.3 mph50%29.95 "HgN/A
2:20 PM73 °FPassing clouds.1 mph57%29.98 "HgN/A
1:50 PM73 °FPassing clouds.2 mph53%29.98 "HgN/A
1:20 PM70 °FPassing clouds.2 mph60%29.98 "HgN/A
12:50 PM70 °FPassing clouds.5 mph60%29.98 "HgN/A
12:20 PM70 °FPassing clouds.5 mph64%29.98 "HgN/A
11:50 AM70 °FPassing clouds.5 mph64%29.98 "HgN/A
11:20 AM70 °FPassing clouds.3 mph69%30.01 "HgN/A
10:50 AM68 °FSunny.2 mph69%30.01 "Hg10 mi
10:20 AM66 °FClear.3 mph78%30.01 "Hg5 mi
9:50 AM63 °FClear.3 mph88%30.01 "Hg4 mi
9:20 AM59 °FClear.2 mph94%30.01 "Hg4 mi
8:50 AM59 °FFog.2 mph88%29.98 "Hg3 mi
8:20 AM57 °FFog.2 mph94%29.98 "Hg3 mi
7:50 AM55 °FFog.1 mph94%29.98 "Hg3 mi
7:20 AM55 °FFog.2 mph94%29.98 "Hg3 mi
6:50 AM55 °FFog.3 mph94%29.98 "Hg3 mi
6:20 AM55 °FFog.2 mph94%29.98 "Hg3 mi
5:50 AM55 °FClear.2 mph100%29.98 "Hg4 mi
5:20 AM55 °FClear.1 mph100%29.98 "Hg4 mi
4:50 AM55 °FFog.2 mph100%29.98 "Hg3 mi
4:20 AM55 °FFog.2 mph100%29.98 "Hg3 mi
3:50 AM55 °FClear.3 mph100%29.98 "Hg4 mi
2:50 AM57 °FFog.2 mph94%29.98 "Hg2 mi
2:20 AM57 °FFog.2 mph94%30.01 "Hg2 mi
1:50 AM57 °FFog.2 mph94%30.01 "Hg3 mi
1:20 AM57 °FFog.No wind94%29.98 "Hg3 mi
12:50 AM57 °FClear.2 mph94%29.98 "Hg4 mi
12:20 AM59 °FClear.2 mph88%29.98 "Hg4 mi
11:50 PM
Sep 15
57 °FClear.2 mph94%30.01 "Hg5 mi
11:20 PM59 °FClear.3 mph88%30.01 "Hg6 mi
10:50 PM59 °FClear.7 mph94%30.01 "Hg6 mi
10:20 PM59 °FClear.5 mph94%30.01 "Hg6 mi
9:50 PM61 °FClear.5 mph88%30.01 "Hg10 mi
9:20 PM63 °FClear.5 mph83%30.01 "Hg10 mi
8:50 PM63 °FSunny.6 mph83%29.98 "Hg10 mi
8:20 PM63 °FPassing clouds.7 mph83%29.98 "HgN/A
Weather by CustomWeather, © 2014

See weather overviewHow to use our weather pages